Regional Weather Roundup
Issued by NWS Jackson, KY

Home | Current Version | Previous Version | Text Only | Print | Product List | Glossary On
Versions: 1 2 3 4 5 6 7 8 9 10 11 12 13 14 15 16 17 18 19 20 21 22 23 24 25 26 27 28 29 30 31 32 33 34 35 36 37 38 39 40 41 42 43 44 45 46 47 48 49 50
000
ASUS43 KJKL 251605
RWRJKL

EAST KENTUCKY HOURLY WEATHER ROUNDUP
NATIONAL WEATHER SERVICE JACKSON KY
1200 PM EDT FRI JUL 25 2014

NOTE: "FAIR" INDICATES FEW OR NO CLOUDS BELOW 12,000 FEET WITH
NO SIGNIFICANT WEATHER AND/OR OBSTRUCTIONS TO VISIBILITY.

* THESE REPORTS ARE NOT UNDER NWS QUALITY CONTROL AND MAY NOT
  REPORT WEATHER SUCH AS PRECIPITATION AND FOG.

KYZ079-080-083-085-087-088-110-112-115-119-120-251700
...EASTERN KENTUCKY...

CITY           SKY/WX    TMP DP  RH WIND       PRES   REMARKS
JACKSON        PTSUNNY   69  61  75 CALM      30.12F
LONDON         CLOUDY    68  59  73 VRB5      30.13R
SOMERSET*      CLOUDY    66  63  88 E3        30.13S
MONTICELLO*    PTSUNNY   69  63  81 E5        30.13S
WILLIAMSBURG*  CLOUDY    64  63  94 CALM      30.12S
MIDDLESBORO*   MOSUNNY   71  63  75 E3        30.11S
HARLAN APT*    PTSUNNY   70  59  68 MISG      30.12S
BLACK MTN*       N/A     68  57  68 VRB2        N/A
PIKEVILLE APT* PTSUNNY   70  59  68 SW5       30.12F
BIG SANDY*     MOSUNNY   71  61  71 SE3       30.12S
MOREHEAD APT*    N/A     73  52  46 VRB7      30.13S
$$

KYZ035-036-041-042-044-050-067-078-099-251700
...CENTRAL KENTUCKY...

CITY           SKY/WX    TMP DP  RH WIND       PRES   REMARKS
MT STERLING*   CLOUDY    73  55  53 CALM      30.11F
FLEMING/MASON* PTSUNNY   74  54  49 CALM      30.11F
DANVILLE*      MOSUNNY   73  55  53 CALM      30.10F
RICHMOND*      MOSUNNY   75  55  50 E3        30.10S
LEXINGTON      MOSUNNY   76  54  46 CALM      30.10F
FRANKFORT      PTSUNNY   79  54  41 VRB3      30.09F
$$

KYZ091>093-OHZ055-061-077-WVZ005-015-034-035-042-251700
...SOUTHERN OHIO/WEST VIRGINIA...

CITY           SKY/WX    TMP DP  RH WIND       PRES   REMARKS
COVINGTON      MOSUNNY   74  53  48 S3        30.11F
COLUMBUS       PTSUNNY   74  52  46 CALM      30.10S
DAYTON         PTSUNNY   71  53  52 CALM      30.11F
WILMINGTON     MOSUNNY   72  53  51 VRB5      30.10F
HUNTINGTON     PTSUNNY   67  61  81 SE3       30.10S
CHARLESTON     MOSUNNY   72  60  66 CALM      30.09F
PINEVILLE*     CLOUDY    68  62  81 MISG      30.18F
BECKLEY        MOSUNNY   68  57  68 W3        30.15S
BLUEFIELD      PTSUNNY   73  59  61 VRB7      30.16F
$$

VAZ002-007-008-TNZ017-027-036-066-071-251700
...SOUTHWEST VIRGINIA/EAST TENNESSEE...

CITY           SKY/WX    TMP DP  RH WIND       PRES   REMARKS
WISE*          CLOUDY    64  61  88 NE3       30.16F
JONESVILLE*    SUNNY     73  63  68 CALM      30.12S
ABINGDON*      PTSUNNY   75  64  67 W6        30.11F
BRISTOL        MOSUNNY   76  63  64 VRB3      30.09F
KNOXVILLE      MOSUNNY   75  64  68 VRB3      30.07S
OAK RIDGE      SUNNY     77  63  61 VRB3      30.09F
CROSSVILLE     MOSUNNY   74  57  55 VRB5      30.12F
NASHVILLE      PTSUNNY   80  58  46 CALM      30.08F
$$

...KEY TO REMARKS...
VSB - VISIBILITY IN MILES
WCI - WIND CHILL INDEX
HX  - HEAT INDEX

$$


USA.gov is the U.S. government's official web portal to all federal, state and local government web resources and services.